Home > Weather > Kenema > Past weeks

Flag for Sierra Leone Weather for the Past 2 Weeks in Kenema, Sierra Leone

Now
86 °F

Partly sunny.


Feels Like: 99 °F
Forecast: 74 / 93 °F
Wind: No wind

Location: Roberts Field

Current Time: May 5, 2016 at 10:35:24 AM

Latest Report: May 5, 2016 at 10:00 AM


Visibility: N/A

Pressure: 29.95 "Hg

Humidity: 79%

Dew Point: 79 °F

Location of KenemaLocation

Historic Weather in Kenema — Graph

°F

Kenema Temperature Yesterday

Maximum temperature yesterday: 91 °F (at 1:00 PM)
Minimum temperature yesterday: 75 °F (at 4:30 AM)
Average temperature yesterday: 82 °F

High & Low Weather Summary for the Past Weeks

 TemperatureHumidityPressure
High95 °F (Apr 27, 3:30 PM)100% (May 1, 7:00 AM)29.95 "Hg (May 1, 7:00 AM)
Low73 °F (May 3, 2:30 AM)56% (Apr 27, 1:30 PM)29.74 "Hg (Apr 25, 3:00 PM)
Average83 °F82%29.84 "Hg
* Reported Apr 20 12:30 PM — May 5 9:30 AM, Kenema, Weather by CustomWeather, © 2016

Note: Actual official high and low records may vary slightly from our data, if they occured in-between our weather recording intervals... More about our weather records

Advertising

Kenema Weather History for the Previous 24 Hours

Scroll right to see more
 ConditionsComfort  
Time TempWeatherWind HumidityBarometerVisibility
9:30 AM
Thu, May 5
86 °FPartly sunny.No wind84%29.92 "HgN/A
9:00 AM86 °FPartly sunny.No wind84%29.92 "HgN/A
8:30 AM84 °FScattered clouds.No wind79%29.92 "HgN/A
8:00 AM81 °FScattered clouds.No wind94%29.92 "Hg5 mi
7:30 AM79 °FScattered clouds.No wind94%29.89 "Hg5 mi
7:00 AM77 °FPassing clouds.No wind94%29.86 "Hg5 mi
6:30 AM77 °FPassing clouds.No wind94%29.86 "Hg5 mi
6:00 AM77 °FThunderstorms. Passing clouds.No wind94%29.86 "HgN/A
5:30 AM77 °FThunderstorms. Passing clouds.No wind94%29.86 "HgN/A
5:00 AM77 °FThunderstorms. Passing clouds.No wind94%29.86 "HgN/A
4:30 AM77 °FThunderstorms. Passing clouds.No wind94%29.83 "HgN/A
4:00 AM79 °FThunderstorms. Passing clouds.No wind94%29.86 "HgN/A
3:30 AM79 °FThunderstorms. Passing clouds.No wind94%29.83 "HgN/A
3:00 AM79 °FPassing clouds.No wind94%29.86 "HgN/A
2:30 AM79 °FPassing clouds.No wind94%29.86 "HgN/A
2:00 AM79 °FPassing clouds.No wind94%29.86 "HgN/A
1:30 AM79 °FPassing clouds.No wind94%29.86 "HgN/A
1:00 AM79 °FPassing clouds.No wind94%29.89 "HgN/A
12:30 AM79 °FPassing clouds.No wind94%29.89 "HgN/A
12:00 AM79 °FPassing clouds.No wind94%29.89 "HgN/A
11:30 PM
Wed, May 4
81 °FPassing clouds.No wind94%29.92 "HgN/A
11:00 PM81 °FPassing clouds.No wind94%29.92 "HgN/A
10:30 PM81 °FPassing clouds.No wind94%29.92 "HgN/A
10:00 PM81 °FPassing clouds.No wind94%29.89 "HgN/A
9:30 PM81 °FThunderstorms. Passing clouds.No wind94%29.89 "HgN/A
9:00 PM81 °FThunderstorms. Passing clouds.No wind89%29.86 "HgN/A
8:30 PM81 °FThunderstorms. Passing clouds.No wind94%29.86 "HgN/A
8:00 PM81 °FThunderstorms. Passing clouds.No wind89%29.86 "HgN/A
7:30 PM82 °FThunderstorms. Passing clouds.No wind84%29.86 "HgN/A
7:00 PM82 °FThunderstorms. Passing clouds.No wind84%29.83 "HgN/A
6:30 PM84 °FThunderstorms. Passing clouds.3 mph79%29.83 "HgN/A
6:00 PM86 °FPassing clouds.3 mph75%29.83 "HgN/A
5:30 PM88 °FPassing clouds.6 mph70%29.83 "HgN/A
5:00 PM88 °FPassing clouds.7 mph70%29.80 "HgN/A
4:30 PM90 °FPassing clouds.9 mph67%29.80 "HgN/A
4:00 PM90 °FPassing clouds.13 mph67%29.80 "HgN/A
3:30 PM91 °FScattered clouds.12 mph67%29.80 "HgN/A
3:00 PM91 °FScattered clouds.14 mph67%29.80 "HgN/A
2:30 PM90 °FScattered clouds.9 mph67%29.83 "HgN/A
2:00 PM90 °FPartly sunny.12 mph67%29.83 "HgN/A
1:30 PM91 °FPartly sunny.5 mph59%29.83 "HgN/A
1:00 PM91 °FPartly sunny.12 mph59%29.86 "HgN/A
12:30 PM90 °FScattered clouds.9 mph63%29.86 "HgN/A
12:00 PM90 °FScattered clouds.6 mph63%29.89 "HgN/A
11:30 AM88 °FScattered clouds.6 mph62%29.89 "HgN/A
11:00 AM88 °FScattered clouds.7 mph66%29.92 "HgN/A
10:30 AM86 °FScattered clouds.No wind66%29.92 "HgN/A
10:00 AM84 °FScattered clouds.No wind70%29.92 "HgN/A
Weather by CustomWeather, © 2016

See weather overviewHow to use our weather pages